Temp
37 35 34 34 34 34 34 35 35 35 35 35 35 34 37 38 36 37 37 37 37 37
36 35 34 34 35 34 35 38 34 34 33 34 33 33 34 33 32 33 32 33 34 35
36 36 35 34 33 33 34 34 33 33 31 32 32 32 33 31 31 30 30 31 30 32
35 35 35 34 33 32 32 33 32 32 30 30 30 31 33 30 29 28 28 28 28 28
34 34 32 32 31 30 30 32 30 30 29 30 30 30 30 28 27 26 26 26 27 27
32 32 30 30 30 30 29 29 28 29 29 29 30 28 28 26 26 26 26 26 26 27
30 30 29 30 29 29 28 28 27 28 28 30 30 28 28 26 25 25 26 27 28 27
30 30 30 29 28 28 27 27 27 27 28 29 30 30 25 26 25 24 24 25 26 28
29 27 26 26 25 26 25 24 22 23 24 25 30 31 29 25 23 23 22 21 23 25
23 23 19 25 24 20 16 18 19 15 16 17 22 30 29 27 20 18 16 17 19 22
23 20 22 17 15 11 10 8 7 10 14 17 24 30 29 27 10 13 14 13 16 17
22 20 20 14 16 14 14 14 9 7 11 16 17 31 29 20 10 9 15 15 19 20
22 19 18 16 14 19 20 15 14 16 15 22 17 30 30 21 8 15 16 18 17 28
27 24 21 19 16 23 22 20 11 12 12 13 19 19 30 28 18 14 16 16 17 20
MSLP
1023.85 1024.02 1024.14 1023.85 1023.82 1023.78 1023.48 1023.50 1023.44 1023.17 1023.02 1022.95 1022.67 1022.29 1021.85 1021.47 1021.41 1021.20 1020.93 1020.67 1020.32 1019.79
1024.47 1024.37 1024.59 1024.10 1024.22 1024.32 1023.99 1023.41 1023.60 1023.49 1023.39 1023.32 1023.15 1022.83 1022.43 1022.25 1022.19 1021.85 1021.61 1021.24 1020.77 1020.28
1024.83 1024.85 1025.02 1024.88 1024.61 1024.45 1024.56 1024.33 1023.89 1023.71 1023.91 1023.83 1023.51 1023.21 1022.72 1022.72 1022.67 1022.29 1022.07 1021.90 1021.53 1020.97
1024.86 1025.24 1025.44 1025.32 1025.19 1025.16 1024.90 1025.04 1024.67 1024.14 1024.40 1024.17 1023.79 1023.47 1023.24 1023.20 1023.08 1022.82 1022.60 1022.34 1021.82 1021.36
1025.11 1025.63 1025.82 1025.63 1025.66 1025.71 1025.55 1025.56 1025.37 1024.85 1024.58 1024.54 1024.24 1023.87 1023.79 1023.67 1023.55 1023.38 1023.01 1022.80 1022.18 1021.55
1025.50 1026.39 1026.38 1025.96 1026.02 1025.95 1026.15 1025.93 1025.85 1025.45 1024.93 1024.87 1024.67 1024.43 1024.43 1024.39 1024.25 1024.11 1023.74 1023.29 1022.65 1021.94
1026.03 1026.70 1026.53 1026.22 1026.86 1026.41 1026.35 1026.45 1026.40 1026.01 1025.48 1025.20 1025.15 1025.01 1024.91 1024.86 1024.83 1024.59 1024.35 1023.88 1023.26 1022.57
1026.55 1026.84 1026.52 1026.89 1027.30 1027.30 1026.77 1027.10 1026.92 1026.50 1026.06 1025.64 1025.34 1025.28 1025.40 1025.32 1025.18 1025.08 1024.95 1024.41 1023.74 1022.90
1026.47 1026.95 1027.21 1027.33 1027.72 1028.31 1027.82 1028.01 1027.63 1027.23 1026.85 1026.31 1025.85 1025.59 1025.61 1025.83 1025.64 1025.66 1025.53 1024.75 1024.17 1023.75
1026.93 1027.31 1027.57 1027.78 1028.56 1028.78 1028.74 1028.58 1028.20 1027.92 1027.68 1026.98 1026.41 1026.05 1025.94 1026.07 1026.16 1026.21 1025.87 1025.43 1024.99 1024.34
1027.06 1027.64 1027.91 1028.43 1029.02 1029.24 1029.22 1029.00 1028.84 1028.67 1028.27 1027.70 1026.57 1026.33 1026.46 1026.23 1026.89 1026.56 1026.10 1025.67 1025.14 1024.52
1027.28 1027.81 1028.26 1028.86 1029.23 1029.34 1029.40 1029.51 1029.47 1029.32 1028.77 1028.45 1027.32 1026.43 1026.64 1026.91 1027.05 1026.84 1026.43 1025.92 1025.29 1024.52
1027.27 1027.89 1028.38 1028.63 1028.88 1029.28 1029.48 1029.72 1029.84 1029.76 1029.48 1028.99 1028.13 1026.75 1026.47 1027.08 1027.29 1027.07 1026.87 1026.46 1025.93 1024.68
1027.45 1027.86 1028.19 1028.47 1028.61 1029.08 1029.50 1029.92 1030.08 1030.06 1029.93 1029.45 1028.53 1027.94 1026.83 1026.75 1027.31 1027.31 1027.31 1026.97 1026.50 1025.97
Wind_Speed
6 4 3 5 4 4 3 4 6 6 8 9 9 9 8 7 7 8 7 9 8 6
5 6 4 6 5 3 4 6 7 7 9 9 9 9 7 7 8 8 8 8 8 7
5 5 5 5 6 6 5 5 7 8 9 8 8 9 8 7 9 9 8 7 10 9
6 5 4 4 5 6 6 7 8 9 9 8 8 8 8 8 10 10 10 10 10 11
6 5 4 6 6 6 7 7 8 8 8 8 8 9 10 10 10 11 12 12 11 12
7 5 4 6 6 7 6 7 8 8 8 8 9 9 10 10 10 10 11 11 11 12
6 4 5 7 6 7 7 7 7 8 7 8 9 10 9 10 9 10 10 12 12 11
5 4 6 7 6 7 8 7 6 7 7 7 7 8 9 9 10 10 11 11 12 12
6 6 5 6 6 5 7 6 6 7 7 7 8 17 18 12 8 10 9 9 11 10
5 5 4 6 5 4 3 2 6 6 6 6 5 17 17 15 6 6 7 7 6 9
6 5 5 6 4 3 2 3 3 5 5 6 5 18 15 15 5 5 6 5 6 5
5 6 5 4 5 3 4 4 3 3 6 6 7 17 16 9 4 4 6 7 9 6
5 5 5 4 5 3 5 4 3 5 6 11 7 14 15 10 3 6 6 6 7 21
5 5 4 2 2 7 6 6 3 4 3 4 9 7 16 17 5 4 5 6 7 8
Wind_Direction
72 68 56 51 41 33 40 47 24 29 34 29 16 10 6 29 13 13 9 9 356 340
65 67 49 50 51 30 14 52 41 39 35 29 20 12 5 33 18 21 7 13 355 352
71 65 52 39 50 41 17 41 41 50 33 27 25 17 30 36 22 22 19 13 358 9
80 57 51 50 50 35 27 42 40 44 37 24 21 23 41 34 29 24 22 11 7 356
81 58 48 65 56 41 38 51 40 37 39 21 19 32 39 36 28 22 20 9 3 355
78 55 66 71 66 50 42 53 38 33 35 22 39 42 46 38 33 24 17 12 1 353
78 95 75 79 59 58 54 45 45 32 28 29 59 46 44 44 34 28 18 19 11 354
105 85 82 80 73 54 56 46 45 41 33 36 48 62 48 41 39 31 21 12 12 3
95 91 90 83 74 71 68 51 34 22 23 30 50 56 57 50 41 31 11 8 7 359
116 101 91 88 94 80 58 34 48 28 1 2 56 57 57 49 34 21 7 356 351 4
107 111 107 103 120 109 96 81 53 16 7 3 43 61 57 46 19 4 357 347 335 354
127 118 118 115 138 144 93 65 43 9 10 9 354 65 55 41 15 359 357 354 352 39
133 136 141 173 156 146 120 99 64 49 16 19 359 38 59 50 24 29 11 5 5 23
142 147 154 133 91 133 125 106 66 47 332 353 9 11 46 60 44 42 29 24 26 18